Location: Ciechanow
(52.8812°N, 20.6195°E)
Time: 04:35:46
(UTC+01:00)

ISS - Pass Details

Date: 24 January 2019
Orbit: 403 x 411 km, 51.6° (Epoch: 21 February)

Event Time Altitude Azimuth Distance (km) Brightness Sun altitude
Rises 17:42:57 0° 201° (SSW) 2,325 0.5 -14.2°
Reaches altitude 10° 17:45:45 10° 174° (S) 1,472 -0.9 -14.6°
Maximum altitude 17:47:32 14° 142° (SE) 1,261 -1.6 -14.9°
Enters shadow 17:47:44 14° 138° (SE) 1,264 -1.6 -14.9°
